| time (UTC) | temp F | wind direction | speed knots | gust knots | rain 1hr in | rain 24hr in | rain mn in | humidity % | barometer mb |
| 20260906115723 | 73 | 134 | 3.5 | 6.1 | 0.00 | 0.00 | 0.00 | 54 | 1035.7 |
| 20260906114725 | 72 | 135 | 6.1 | 8.7 | 0.00 | 0.00 | 0.00 | 54 | 1035.9 |
| 20260906113725 | 70 | 133 | 3.5 | 7.8 | 0.00 | 0.00 | 0.00 | 57 | 1036.1 |
| 20260906111821 | 68 | 135 | 6.1 | 8.7 | 0.00 | 0.00 | 0.00 | 61 | 1036.4 |
| 20260906110823 | 67 | 132 | 2.6 | 4.3 | 0.00 | 0.00 | 0.00 | 62 | 1036.3 |
| 20260906105821 | 67 | 135 | 4.3 | 6.1 | 0.00 | 0.00 | 0.00 | 63 | 1036.6 |
| 20260906104826 | 67 | 133 | 5.2 | 7.0 | 0.00 | 0.00 | 0.00 | 65 | 1036.7 |
| 20260906102822 | 65 | 135 | 2.6 | 4.3 | 0.00 | 0.00 | 0.00 | 68 | 1036.7 |
| 20260906101825 | 65 | 128 | 3.5 | 7.0 | 0.00 | 0.00 | 0.00 | 68 | 1036.8 |
| 20260906100823 | 64 | 135 | 3.5 | 6.1 | 0.00 | 0.00 | 0.00 | 69 | 1037.0 |
| 20260906094823 | 64 | 112 | 0.9 | 1.7 | 0.00 | 0.00 | 0.00 | 73 | 1037.1 |
| 20260906093722 | 63 | 135 | 3.5 | 5.2 | 0.00 | 0.00 | 0.00 | 73 | 1037.2 |
| 20260906092822 | 63 | 135 | 4.3 | 6.1 | 0.00 | 0.00 | 0.00 | 74 | 1037.3 |
| 20260906091822 | 63 | 135 | 1.7 | 6.1 | 0.00 | 0.00 | 0.00 | 75 | 1037.3 |
| 20260906090824 | 63 | 135 | 3.5 | 5.2 | 0.00 | 0.00 | 0.00 | 78 | 1037.5 |
| 20260906085824 | 63 | 135 | 4.3 | 6.1 | 0.00 | 0.00 | 0.00 | 80 | 1037.7 |
| 20260906084823 | 62 | 134 | 4.3 | 6.1 | 0.00 | 0.00 | 0.00 | 83 | 1037.9 |
| 20260906084722 | 62 | 135 | 4.3 | 6.1 | 0.00 | 0.00 | 0.00 | 83 | 1037.9 |
| 20260906083724 | 61 | 135 | 2.6 | 4.3 | 0.00 | 0.00 | 0.00 | 85 | 1037.9 |
| 20260906081822 | 60 | 135 | 3.5 | 6.1 | 0.00 | 0.00 | 0.00 | 93 | 1037.8 |
| 20260906075823 | 57 | 135 | 3.5 | 5.2 | 0.00 | 0.00 | 0.00 | 96 | 1037.9 |
| 20260906074821 | 56 | 135 | 1.7 | 3.5 | 0.00 | 0.00 | 0.00 | 97 | 1037.7 |
| 20260906073822 | 56 | 135 | 2.6 | 3.5 | 0.00 | 0.00 | 0.00 | 97 | 1037.6 |
| 20260906073723 | 56 | 135 | 1.7 | 3.5 | 0.00 | 0.00 | 0.00 | 97 | 1037.6 |
| 20260906072721 | 55 | 135 | 1.7 | 3.5 | 0.00 | 0.00 | 0.00 | 97 | 1037.6 |
| 20260906071724 | 54 | 135 | 1.7 | 2.6 | 0.00 | 0.00 | 0.00 | 98 | 1037.6 |
| 20260906070723 | 53 | 135 | 3.5 | 4.3 | 0.00 | 0.00 | 0.00 | 98 | 1037.6 |
| 20260906070621 | 53 | 135 | 2.6 | 3.5 | 0.00 | 0.00 | 0.00 | 98 | 1037.6 |
| 20260906065623 | 52 | 135 | 1.7 | 1.7 | 0.00 | 0.00 | 0.00 | 98 | 1037.3 |
| 20260906064722 | 51 | 135 | 0.9 | 1.7 | 0.00 | 0.00 | 0.00 | 97 | 1037.5 |
| 20260906063621 | 50 | 135 | 1.7 | 2.6 | 0.00 | 0.00 | 0.00 | 97 | 1037.3 |
| 20260906062622 | 50 | 135 | 0.9 | 1.7 | 0.00 | 0.00 | 0.00 | 97 | 1037.5 |
| 20260906061623 | 49 | 135 | 1.7 | 2.6 | 0.00 | 0.00 | 0.00 | 97 | 1037.3 |
| 20260906061523 | 49 | 135 | 0.0 | 0.9 | 0.00 | 0.00 | 0.00 | 97 | 1037.3 |
| 20260906060525 | 49 | 135 | 0.9 | 1.7 | 0.00 | 0.00 | 0.00 | 97 | 1037.1 |
| 20260906054522 | 48 | 135 | 0.0 | 0.9 | 0.00 | 0.00 | 0.00 | 97 | 1037.4 |
| 20260906053524 | 48 | 135 | 0.9 | 1.7 | 0.00 | 0.00 | 0.00 | 97 | 1037.2 |
| 20260906053424 | 48 | 135 | 0.0 | 0.9 | 0.00 | 0.00 | 0.00 | 97 | 1037.2 |
| 20260906051524 | 48 | 135 | 0.9 | 1.7 | 0.00 | 0.00 | 0.00 | 97 | 1037.2 |
| 20260906050622 | 48 | 135 | 0.9 | 1.7 | 0.00 | 0.00 | 0.00 | 97 | 1037.2 |
| 20260906045624 | 48 | 135 | 0.9 | 1.7 | 0.00 | 0.00 | 0.00 | 97 | 1037.3 |
| 20260906043623 | 48 | 135 | 0.0 | 0.9 | 0.00 | 0.00 | 0.00 | 97 | 1037.2 |
| 20260906043521 | 49 | 135 | 0.0 | 0.0 | 0.00 | 0.00 | 0.00 | 97 | 1037.2 |
| 20260906041621 | 49 | 135 | 0.0 | 0.0 | 0.00 | 0.00 | 0.00 | 97 | 1037.2 |
| 20260906041521 | 49 | 135 | 0.0 | 0.0 | 0.00 | 0.00 | 0.00 | 97 | 1037.2 |
| 20260906040523 | 49 | 135 | 0.0 | 0.0 | 0.00 | 0.00 | 0.00 | 97 | 1037.2 |
| 20260906035522 | 49 | 135 | 0.0 | 0.0 | 0.00 | 0.00 | 0.00 | 97 | 1037.0 |
| 20260906034524 | 49 | 135 | 0.0 | 0.0 | 0.00 | 0.00 | 0.00 | 96 | 1037.1 |
| 20260906033523 | 49 | 135 | 0.0 | 0.9 | 0.00 | 0.00 | 0.00 | 96 | 1037.3 |
| 20260906032622 | 49 | 135 | 0.0 | 0.0 | 0.00 | 0.00 | 0.00 | 96 | 1037.4 |
| 20260906031621 | 49 | 135 | 0.0 | 0.0 | 0.00 | 0.00 | 0.00 | 96 | 1037.4 |
| 20260906030622 | 49 | 135 | 0.0 | 0.0 | 0.00 | 0.00 | 0.00 | 96 | 1037.7 |
| 20260906025623 | 49 | 135 | 0.0 | 0.0 | 0.00 | 0.00 | 0.00 | 96 | 1037.7 |
| 20260906024623 | 49 | 135 | 0.0 | 0.0 | 0.00 | 0.00 | 0.00 | 96 | 1037.8 |
| 20260906023621 | 49 | 135 | 0.0 | 0.0 | 0.00 | 0.00 | 0.00 | 96 | 1037.6 |
| 20260906023523 | 49 | 135 | 0.0 | 0.0 | 0.00 | 0.00 | 0.00 | 96 | 1037.7 |
| 20260906023422 | 49 | 135 | 0.0 | 0.0 | 0.00 | 0.00 | 0.00 | 96 | 1037.7 |
| 20260906022423 | 49 | 135 | 0.0 | 0.0 | 0.00 | 0.00 | 0.00 | 96 | 1037.5 |
| 20260906021322 | 50 | 135 | 0.0 | 0.9 | 0.00 | 0.00 | 0.00 | 95 | 1037.5 |
| 20260906021223 | 50 | 135 | 0.0 | 0.9 | 0.00 | 0.00 | 0.00 | 95 | 1037.5 |
| 20260906020222 | 50 | 135 | 0.0 | 0.0 | 0.00 | 0.00 | 0.00 | 95 | 1037.7 |
| 20260906015222 | 50 | 135 | 0.0 | 0.0 | 0.00 | 0.00 | 0.00 | 95 | 1037.5 |
| 20260906013224 | 50 | 135 | 0.0 | 0.0 | 0.00 | 0.00 | 0.00 | 95 | 1037.3 |
| 20260906005222 | 51 | 135 | 0.0 | 0.0 | 0.00 | 0.00 | 0.00 | 94 | 1037.4 |
| 20260906005121 | 51 | 135 | 0.0 | 0.0 | 0.00 | 0.00 | 0.00 | 94 | 1037.4 |
| 20260906004137 | 51 | 135 | 0.0 | 0.0 | 0.00 | 0.00 | 0.00 | 94 | 1037.3 |
| 20260906003121 | 51 | 135 | 0.0 | 0.0 | 0.00 | 0.00 | 0.00 | 94 | 1037.3 |
| 20260906002024 | 51 | 135 | 0.0 | 0.0 | 0.00 | 0.00 | 0.00 | 93 | 1037.2 |
| 20260906001022 | 51 | 135 | 0.0 | 0.0 | 0.00 | 0.00 | 0.00 | 93 | 1037.2 |
| 20260906000923 | 51 | 135 | 0.0 | 0.0 | 0.00 | 0.00 | 0.00 | 93 | 1037.2 |
| 20260905235923 | 52 | 135 | 0.0 | 0.0 | 0.00 | 0.00 | 0.00 | 93 | 1037.3 |
| 20260905235023 | 52 | 135 | 0.0 | 0.0 | 0.00 | 0.00 | 0.00 | 93 | 1037.4 |
| 20260905234921 | 52 | 135 | 0.0 | 0.0 | 0.00 | 0.00 | 0.00 | 93 | 1037.5 |
| 20260905233921 | 52 | 112 | 0.0 | 1.7 | 0.00 | 0.00 | 0.00 | 92 | 1037.4 |
| 20260905232820 | 52 | 112 | 0.0 | 0.0 | 0.00 | 0.00 | 0.00 | 92 | 1037.4 |
| 20260905231823 | 52 | 112 | 0.0 | 0.0 | 0.00 | 0.00 | 0.00 | 92 | 1037.4 |
| 20260905225823 | 52 | 180 | 0.0 | 0.0 | 0.00 | 0.00 | 0.00 | 92 | 1037.1 |
| 20260905223923 | 53 | 180 | 0.0 | 0.0 | 0.00 | 0.00 | 0.00 | 91 | 1037.0 |
| 20260905222923 | 53 | 180 | 0.0 | 0.0 | 0.00 | 0.00 | 0.00 | 91 | 1036.9 |
| 20260905221924 | 53 | 180 | 0.0 | 0.0 | 0.00 | 0.00 | 0.00 | 90 | 1036.8 |
| 20260905221021 | 54 | 180 | 0.0 | 0.0 | 0.00 | 0.00 | 0.00 | 89 | 1036.9 |
| 20260905215024 | 54 | 180 | 0.0 | 0.0 | 0.00 | 0.00 | 0.00 | 89 | 1036.8 |
| 20260905214922 | 54 | 180 | 0.0 | 0.0 | 0.00 | 0.00 | 0.00 | 89 | 1036.8 |
| 20260905214824 | 54 | 180 | 0.0 | 0.0 | 0.00 | 0.00 | 0.00 | 89 | 1036.8 |
| 20260905213822 | 55 | 180 | 0.9 | 1.7 | 0.00 | 0.00 | 0.00 | 88 | 1036.9 |
| 20260905212825 | 55 | 180 | 0.0 | 0.9 | 0.00 | 0.00 | 0.00 | 88 | 1036.8 |
| 20260905211823 | 55 | 180 | 0.9 | 1.7 | 0.00 | 0.00 | 0.00 | 87 | 1036.8 |
| 20260905210921 | 55 | 180 | 0.9 | 1.7 | 0.00 | 0.00 | 0.00 | 87 | 1036.7 |
| 20260905205922 | 55 | 180 | 0.9 | 1.7 | 0.00 | 0.00 | 0.00 | 86 | 1036.7 |
| 20260905204923 | 56 | 180 | 0.9 | 1.7 | 0.00 | 0.00 | 0.00 | 86 | 1036.7 |
| 20260905203925 | 56 | 180 | 0.9 | 1.7 | 0.00 | 0.00 | 0.00 | 85 | 1036.6 |
| 20260905202923 | 56 | 180 | 0.0 | 0.0 | 0.00 | 0.00 | 0.00 | 84 | 1036.5 |
| 20260905202839 | 56 | 180 | 0.0 | 0.0 | 0.00 | 0.00 | 0.00 | 84 | 1036.6 |
| 20260905201922 | 57 | 116 | 1.7 | 2.6 | 0.00 | 0.00 | 0.00 | 83 | 1036.6 |
| 20260905200923 | 57 | 112 | 0.0 | 0.9 | 0.00 | 0.00 | 0.00 | 83 | 1036.4 |
| 20260905200822 | 57 | 112 | 0.9 | 0.9 | 0.00 | 0.00 | 0.00 | 83 | 1036.5 |
| 20260905195822 | 58 | 180 | 0.0 | 0.0 | 0.00 | 0.00 | 0.00 | 82 | 1036.3 |
| 20260905194823 | 58 | 180 | 0.0 | 0.9 | 0.00 | 0.00 | 0.00 | 81 | 1036.4 |
| 20260905190922 | 60 | 180 | 0.0 | 0.9 | 0.00 | 0.00 | 0.00 | 76 | 1036.1 |
| 20260905185923 | 60 | 180 | 1.7 | 2.6 | 0.00 | 0.00 | 0.00 | 76 | 1036.0 |
| 20260905184921 | 60 | 180 | 1.7 | 3.5 | 0.00 | 0.00 | 0.00 | 75 | 1035.9 |
| 20260905182922 | 62 | 180 | 2.6 | 3.5 | 0.00 | 0.00 | 0.00 | 72 | 1035.7 |
| 20260905181921 | 62 | 180 | 3.5 | 6.1 | 0.00 | 0.00 | 0.00 | 72 | 1035.6 |
| 20260905175823 | 63 | 180 | 0.0 | 0.9 | 0.00 | 0.00 | 0.00 | 68 | 1035.5 |
| 20260905174822 | 64 | 180 | 2.6 | 4.3 | 0.00 | 0.00 | 0.00 | 66 | 1035.4 |
| 20260905172839 | 66 | 178 | 3.5 | 7.8 | 0.00 | 0.00 | 0.00 | 63 | 1035.2 |
| 20260905165021 | 67 | 173 | 2.6 | 5.2 | 0.00 | 0.00 | 0.00 | 60 | 1034.7 |
| 20260905164923 | 67 | 180 | 4.3 | 7.0 | 0.00 | 0.00 | 0.00 | 59 | 1034.8 |
| 20260905164022 | 69 | 177 | 6.1 | 9.6 | 0.00 | 0.00 | 0.00 | 58 | 1034.7 |
| 20260905163122 | 69 | 168 | 6.1 | 9.6 | 0.00 | 0.00 | 0.00 | 58 | 1034.5 |
| 20260905162123 | 69 | 178 | 3.5 | 7.8 | 0.00 | 0.00 | 0.00 | 58 | 1034.4 |
| 20260905161122 | 69 | 175 | 7.0 | 12.2 | 0.00 | 0.00 | 0.00 | 59 | 1034.2 |
| 20260905160123 | 69 | 178 | 7.0 | 11.3 | 0.00 | 0.00 | 0.00 | 59 | 1034.2 |
| 20260905155137 | 69 | 178 | 7.8 | 12.2 | 0.00 | 0.00 | 0.00 | 59 | 1034.1 |
| 20260905154221 | 68 | 180 | 4.3 | 8.7 | 0.00 | 0.00 | 0.00 | 60 | 1034.1 |
| 20260905153221 | 68 | 175 | 7.8 | 12.2 | 0.00 | 0.00 | 0.00 | 60 | 1034.1 |
| 20260905152221 | 69 | 177 | 5.2 | 12.2 | 0.00 | 0.00 | 0.00 | 58 | 1033.9 |
| 20260905152123 | 69 | 164 | 5.2 | 8.7 | 0.00 | 0.00 | 0.00 | 58 | 1033.9 |
| 20260905151221 | 69 | 178 | 6.1 | 10.4 | 0.00 | 0.00 | 0.00 | 59 | 1033.6 |
| 20260905145222 | 69 | 155 | 4.3 | 7.8 | 0.00 | 0.00 | 0.00 | 59 | 1033.6 |
| 20260905144321 | 69 | 180 | 6.1 | 8.7 | 0.00 | 0.00 | 0.00 | 59 | 1033.4 |
| 20260905142323 | 70 | 160 | 6.1 | 9.6 | 0.00 | 0.00 | 0.00 | 60 | 1033.3 |
| 20260905141322 | 69 | 142 | 4.3 | 11.3 | 0.00 | 0.00 | 0.00 | 59 | 1033.3 |
| 20260905140323 | 71 | 175 | 6.1 | 8.7 | 0.00 | 0.00 | 0.00 | 57 | 1033.1 |
| 20260905135322 | 70 | 178 | 8.7 | 13.0 | 0.00 | 0.00 | 0.00 | 58 | 1033.0 |
| 20260905134321 | 70 | 175 | 6.1 | 12.2 | 0.00 | 0.00 | 0.00 | 59 | 1032.8 |
| 20260905133323 | 70 | 177 | 8.7 | 13.0 | 0.00 | 0.00 | 0.00 | 59 | 1033.0 |
| 20260905131323 | 69 | 170 | 4.3 | 7.8 | 0.00 | 0.00 | 0.00 | 60 | 1032.7 |
| 20260905130421 | 70 | 178 | 6.1 | 10.4 | 0.00 | 0.00 | 0.00 | 60 | 1032.6 |
| 20260905125422 | 70 | 180 | 7.0 | 10.4 | 0.00 | 0.00 | 0.00 | 60 | 1032.6 |
| 20260905124421 | 71 | 178 | 9.6 | 13.9 | 0.00 | 0.00 | 0.00 | 59 | 1032.5 |
| 20260905123422 | 70 | 177 | 8.7 | 13.0 | 0.00 | 0.00 | 0.00 | 62 | 1032.5 |
| 20260905122522 | 69 | 164 | 7.0 | 14.8 | 0.00 | 0.00 | 0.00 | 63 | 1032.5 |
| 20260905121522 | 68 | 155 | 7.0 | 11.3 | 0.00 | 0.00 | 0.00 | 62 | 1032.4 |
| 20260905120521 | 69 | 145 | 7.0 | 13.0 | 0.00 | 0.00 | 0.00 | 62 | 1032.2 |